BREEZE-M DEB, 38593

Orbit data source: Space-Track

BREEZE-M DEB, 38593 is space debris in HEO originally from a launch on Fri, 14 Mar 2008 UTC launched from the Tyuratam Missile And Space Complex (TTMTR). Debris objects in space refer to the collection of defunct objects orbiting the Earth. Examples of debris include non-operational satellites, rocket bodies, and fragments generated from explosions, collisions, or faulty payload assembly.

Loading next visibility...
Identifier
38593, 2008-011AQ
Orbit
HEO
Country
Flag of CISCIS
Related business
Manufacturer
Unknown
Mission
Spacecraft
Bus & Motor
Unknown
Mass
Unknown
Launch date (UTC)
2008-03-14 (18 years ago)
Launch vehicle
Unknown
Launch site
Tyuratam Missile And Space Complex (TTMTR)
Object type
Payload
Rocket body
Debris
Shape & HBR
Unknown shape, 0.3 m
Radar Cross Section
Medium (>0.1 m² and <1 m²)

Expand to show TLE details & history
Last TLE update: 4 months ago

TLE from 4 months ago
0 BREEZE-M DEB
1 38593U 08011AQ  26062.14369506  .00000344  00000-0  15218-2 0  9998
2 38593  49.3651 324.9829 6606480 248.2976  32.4919  3.03519349166214
Epoch: 2026-03-03T03:26Z
TLE epoch observation values (Epoch: 2026-03-03T03:26:55.253Z)
Latitude
0.00007°
Longitude
112.36522°
Altitude
8,694.361 km
Speed
5.754 km/s
True Right ascension
21h 40m 05s
True Declination
0° 00' 00"
Sunlit
Object was in daylight at epoch
Visualization orbit readout
Latitude
Unknown
Longitude
Unknown
Altitude
Unknown
Speed
Unknown
Apparent Right ascension
Unknown
Apparent Declination
Unknown
Sunlit
N/A
Visualization observer readout
Local Sidereal Time
15:33:41
Azimuth
Unknown
Elevation
Unknown
Doppler factor
Unknown
Orbital elements
Apogee altitude
27,085.304 km
Perigee altitude
460.089 km
Semi-major axis
20,150.834 km
Eccentricity
0.66065
Inclination
49.3651°
RAAN
324.9829°
Arg. of periapsis
248.2976°
True anomaly
111.79019°
Mean anomaly
32.4919°
Eccentric anomaly
67.45033°
Mean motion
0.75876 °/min
Orbital period
474.46 mins
BSTAR
0.0015218
Loading maneuver chart data...
Computing Atmospheric mass density...
Loading historical data...
Loading historical data...
Loading historical data...
Loading historical data...
Loading historical data...
Loading historical data...
Loading historical data...

Documentation

Showing up to 5 results
|